| time (UTC) | temp F | wind direction | speed MPH | gust MPH | rain 1hr in | rain 24hr in | rain mn in | humidity % | barometer mb |
| 20260902073036 | 61 | 191 | 0.0 | 2.0 | 0.00 | 0.20 | 0.00 | 81 | 1020.3 |
| 20260902072033 | 61 | 0.0 | 2.0 | 0.00 | 0.20 | 0.00 | 81 | 1020.2 | |
| 20260902071031 | 62 | 0.0 | 2.0 | 0.00 | 0.20 | 0.00 | 80 | 1020.1 | |
| 20260902070029 | 59 | 0.0 | 0.0 | 0.00 | 0.20 | 0.00 | 86 | 1020.1 | |
| 20260902065026 | 58 | 0.0 | 0.0 | 0.00 | 0.20 | 0.00 | 88 | 1020.3 | |
| 20260902064023 | 57 | 0.0 | 2.0 | 0.00 | 0.20 | 0.00 | 89 | 1020.3 | |
| 20260902063020 | 57 | 0.0 | 0.0 | 0.00 | 0.20 | 0.00 | 90 | 1020.2 | |
| 20260902062018 | 56 | 0.0 | 0.0 | 0.00 | 0.20 | 0.00 | 91 | 1020.2 | |
| 20260902061015 | 56 | 180 | 0.0 | 2.0 | 0.00 | 0.20 | 0.00 | 92 | 1020.2 |
| 20260902060113 | 55 | 0.0 | 0.0 | 0.00 | 0.20 | 0.00 | 93 | 1020.2 | |
| 20260902055110 | 55 | 0.0 | 0.0 | 0.00 | 0.20 | 0.00 | 93 | 1020.3 | |
| 20260902054108 | 55 | 0.0 | 0.0 | 0.00 | 0.20 | 0.00 | 93 | 1020.2 | |
| 20260902053105 | 54 | 0.0 | 0.0 | 0.00 | 0.20 | 0.00 | 93 | 1020.2 | |
| 20260902052103 | 54 | 0.0 | 0.0 | 0.00 | 0.20 | 0.00 | 93 | 1020.3 | |
| 20260902051100 | 54 | 0.0 | 0.0 | 0.00 | 0.21 | 0.00 | 93 | 1020.3 | |
| 20260902050058 | 54 | 0.0 | 0.0 | 0.00 | 0.21 | 0.00 | 94 | 1020.1 | |
| 20260902045055 | 54 | 0.0 | 0.0 | 0.00 | 0.21 | 0.00 | 94 | 1020.1 | |
| 20260902044052 | 53 | 0.0 | 0.0 | 0.00 | 0.21 | 0.00 | 94 | 1020.1 | |
| 20260902043050 | 53 | 0.0 | 0.0 | 0.00 | 0.21 | 0.00 | 93 | 1020.1 | |
| 20260902042047 | 53 | 0.0 | 0.0 | 0.00 | 0.21 | 0.00 | 93 | 1020.2 | |
| 20260902041045 | 53 | 0.0 | 0.0 | 0.00 | 0.21 | 0.00 | 93 | 1020.2 | |
| 20260902040042 | 53 | 0.0 | 0.0 | 0.00 | 0.21 | 0.00 | 93 | 1020.1 | |
| 20260902035039 | 53 | 0.0 | 0.0 | 0.00 | 0.21 | 0.00 | 93 | 1020.1 | |
| 20260902034036 | 54 | 0.0 | 0.0 | 0.00 | 0.21 | 0.00 | 93 | 1020.2 | |
| 20260902033034 | 53 | 0.0 | 0.0 | 0.00 | 0.21 | 0.00 | 93 | 1020.2 | |
| 20260902032031 | 53 | 0.0 | 0.0 | 0.00 | 0.21 | 0.00 | 93 | 1020.4 | |
| 20260902031029 | 54 | 0.0 | 0.0 | 0.00 | 0.21 | 0.00 | 93 | 1020.4 | |
| 20260902030026 | 54 | 0.0 | 0.0 | 0.00 | 0.22 | 0.00 | 93 | 1020.5 | |
| 20260902025024 | 54 | 0.0 | 0.0 | 0.00 | 0.25 | 0.00 | 93 | 1020.5 | |
| 20260902024021 | 54 | 0.0 | 0.0 | 0.00 | 0.25 | 0.00 | 93 | 1020.4 | |
| 20260902023019 | 54 | 0.0 | 0.0 | 0.00 | 0.25 | 0.00 | 93 | 1020.5 | |
| 20260902022016 | 54 | 0.0 | 0.0 | 0.00 | 0.25 | 0.00 | 93 | 1020.4 | |
| 20260902021114 | 54 | 0.0 | 0.0 | 0.00 | 0.25 | 0.00 | 93 | 1020.4 | |
| 20260902020111 | 54 | 0.0 | 0.0 | 0.00 | 0.25 | 0.00 | 93 | 1020.4 | |
| 20260902015109 | 54 | 0.0 | 0.0 | 0.00 | 0.25 | 0.00 | 93 | 1020.5 | |
| 20260902014106 | 54 | 0.0 | 0.0 | 0.00 | 0.25 | 0.00 | 93 | 1020.4 | |
| 20260902013104 | 54 | 0.0 | 0.0 | 0.00 | 0.25 | 0.00 | 93 | 1020.3 | |
| 20260902012101 | 54 | 0.0 | 0.0 | 0.00 | 0.25 | 0.00 | 93 | 1020.4 | |
| 20260902011058 | 54 | 0.0 | 0.0 | 0.00 | 0.27 | 0.00 | 93 | 1020.3 | |
| 20260902010056 | 54 | 0.0 | 0.0 | 0.00 | 0.27 | 0.00 | 93 | 1020.1 | |
| 20260902005053 | 54 | 0.0 | 0.0 | 0.00 | 0.28 | 0.00 | 93 | 1020.3 | |
| 20260902004051 | 54 | 0.0 | 0.0 | 0.00 | 0.28 | 0.00 | 93 | 1020.2 | |
| 20260902003048 | 54 | 0.0 | 0.0 | 0.00 | 0.31 | 0.00 | 93 | 1020.2 | |
| 20260902002045 | 54 | 0.0 | 0.0 | 0.00 | 0.31 | 0.00 | 93 | 1020.2 | |
| 20260902001043 | 54 | 0.0 | 0.0 | 0.00 | 0.31 | 0.00 | 93 | 1020.3 | |
| 20260902000040 | 54 | 0.0 | 0.0 | 0.00 | 0.31 | 0.00 | 93 | 1020.3 | |
| 20260901235038 | 55 | 0.0 | 0.0 | 0.00 | 0.32 | 0.00 | 93 | 1020.3 | |
| 20260901234035 | 55 | 0.0 | 0.0 | 0.00 | 0.32 | 0.00 | 93 | 1020.5 | |
| 20260901233033 | 55 | 0.0 | 0.0 | 0.00 | 0.32 | 0.00 | 93 | 1020.5 | |
| 20260901232030 | 55 | 0.0 | 0.0 | 0.00 | 0.32 | 0.00 | 93 | 1020.6 | |
| 20260901231027 | 56 | 0.0 | 0.0 | 0.00 | 0.32 | 0.00 | 93 | 1020.6 | |
| 20260901230025 | 56 | 0.0 | 0.0 | 0.00 | 0.32 | 0.00 | 93 | 1020.8 | |
| 20260901225022 | 56 | 0.0 | 0.0 | 0.00 | 0.32 | 0.00 | 93 | 1020.6 | |
| 20260901224020 | 56 | 0.0 | 0.0 | 0.00 | 0.32 | 0.00 | 93 | 1020.8 | |
| 20260901223017 | 57 | 0.0 | 0.0 | 0.00 | 0.32 | 0.00 | 93 | 1020.9 | |
| 20260901222015 | 57 | 0.0 | 0.0 | 0.00 | 0.32 | 0.00 | 93 | 1020.9 | |
| 20260901221112 | 57 | 0.0 | 0.0 | 0.00 | 0.32 | 0.00 | 93 | 1020.9 | |
| 20260901220110 | 57 | 0.0 | 0.0 | 0.00 | 0.32 | 0.00 | 92 | 1020.7 | |
| 20260901215107 | 57 | 0.0 | 0.0 | 0.00 | 0.32 | 0.32 | 92 | 1020.7 | |
| 20260901214104 | 57 | 0.0 | 0.0 | 0.00 | 0.32 | 0.32 | 92 | 1020.6 | |
| 20260901213102 | 57 | 0.0 | 0.0 | 0.00 | 0.32 | 0.32 | 92 | 1020.5 | |
| 20260901212059 | 57 | 0.0 | 0.0 | 0.00 | 0.32 | 0.32 | 92 | 1020.5 | |
| 20260901211057 | 58 | 0.0 | 0.0 | 0.00 | 0.32 | 0.32 | 92 | 1020.5 | |
| 20260901210054 | 58 | 0.0 | 0.0 | 0.00 | 0.32 | 0.32 | 92 | 1020.4 | |
| 20260901205052 | 59 | 0.0 | 0.0 | 0.00 | 0.32 | 0.32 | 92 | 1020.4 | |
| 20260901204049 | 59 | 0.0 | 0.0 | 0.00 | 0.32 | 0.32 | 91 | 1020.4 | |
| 20260901203046 | 60 | 0.0 | 0.0 | 0.00 | 0.32 | 0.32 | 91 | 1020.5 | |
| 20260901202044 | 60 | 0.0 | 0.0 | 0.02 | 0.32 | 0.32 | 91 | 1020.5 | |
| 20260901201041 | 60 | 0.0 | 0.0 | 0.04 | 0.32 | 0.32 | 90 | 1020.5 | |
| 20260901200039 | 60 | 0.0 | 0.0 | 0.04 | 0.32 | 0.32 | 90 | 1020.5 | |
| 20260901195036 | 60 | 0.0 | 0.0 | 0.04 | 0.32 | 0.32 | 90 | 1020.4 | |
| 20260901194034 | 60 | 0.0 | 0.0 | 0.04 | 0.32 | 0.32 | 89 | 1020.4 | |
| 20260901193031 | 61 | 0.0 | 2.0 | 0.04 | 0.32 | 0.32 | 87 | 1020.5 | |
| 20260901192028 | 61 | 0.0 | 0.0 | 0.01 | 0.30 | 0.30 | 83 | 1020.4 | |
| 20260901191026 | 61 | 0.0 | 0.0 | 0.00 | 0.28 | 0.28 | 82 | 1020.2 | |
| 20260901190023 | 62 | 0.0 | 0.0 | 0.00 | 0.28 | 0.28 | 80 | 1020.2 | |
| 20260901185021 | 62 | 0.0 | 0.0 | 0.00 | 0.28 | 0.28 | 79 | 1020.0 | |
| 20260901184018 | 62 | 0.0 | 0.0 | 0.00 | 0.28 | 0.28 | 78 | 1019.9 | |
| 20260901183016 | 62 | 0.0 | 0.0 | 0.00 | 0.28 | 0.28 | 79 | 1019.8 | |
| 20260901182113 | 62 | 0.0 | 0.0 | 0.00 | 0.31 | 0.28 | 78 | 1019.7 | |
| 20260901181111 | 62 | 0.0 | 2.0 | 0.00 | 0.31 | 0.28 | 77 | 1019.6 | |
| 20260901180108 | 62 | 0.0 | 0.0 | 0.00 | 0.31 | 0.28 | 76 | 1019.5 | |
| 20260901175106 | 63 | 0.0 | 2.0 | 0.00 | 0.31 | 0.28 | 76 | 1019.5 | |
| 20260901174103 | 64 | 42 | 0.0 | 4.0 | 0.00 | 0.31 | 0.28 | 74 | 1019.5 |
| 20260901173101 | 64 | 0.0 | 2.0 | 0.00 | 0.31 | 0.28 | 72 | 1019.5 | |
| 20260901172058 | 64 | 0 | 0.0 | 2.0 | 0.00 | 0.31 | 0.28 | 71 | 1019.4 |
| 20260901171055 | 64 | 0.0 | 2.0 | 0.00 | 0.31 | 0.28 | 70 | 1019.2 | |
| 20260901170053 | 64 | 90 | 0.0 | 2.0 | 0.00 | 0.31 | 0.28 | 71 | 1019.1 |
| 20260901165050 | 65 | 0.0 | 2.0 | 0.00 | 0.31 | 0.28 | 71 | 1019.2 | |
| 20260901164048 | 65 | 0.0 | 2.0 | 0.00 | 0.31 | 0.28 | 71 | 1019.3 | |
| 20260901163045 | 65 | 0.0 | 2.0 | 0.00 | 0.31 | 0.28 | 70 | 1019.2 | |
| 20260901162043 | 65 | 62 | 1.0 | 4.0 | 0.00 | 0.31 | 0.28 | 70 | 1019.1 |
| 20260901161040 | 65 | 0.0 | 2.0 | 0.00 | 0.31 | 0.28 | 71 | 1019.1 | |
| 20260901160038 | 65 | 52 | 0.0 | 4.0 | 0.00 | 0.31 | 0.28 | 70 | 1019.2 |
| 20260901155035 | 65 | 30 | 1.0 | 4.0 | 0.00 | 0.31 | 0.28 | 70 | 1019.1 |
| 20260901154033 | 66 | 68 | 0.0 | 4.0 | 0.00 | 0.31 | 0.28 | 72 | 1019.1 |
| 20260901153030 | 66 | 27 | 0.0 | 2.0 | 0.00 | 0.31 | 0.28 | 72 | 1019.1 |
| 20260901152027 | 65 | 45 | 0.0 | 2.0 | 0.00 | 0.31 | 0.28 | 78 | 1019.0 |
| 20260901151025 | 65 | 68 | 0.0 | 2.0 | 0.00 | 0.33 | 0.28 | 79 | 1019.0 |
| 20260901150022 | 64 | 0.0 | 2.0 | 0.00 | 0.34 | 0.28 | 80 | 1019.0 | |
| 20260901145020 | 64 | 0.0 | 0.0 | 0.00 | 0.34 | 0.28 | 82 | 1018.8 | |
| 20260901144017 | 64 | 0.0 | 0.0 | 0.00 | 0.34 | 0.28 | 85 | 1018.9 | |
| 20260901143015 | 63 | 23 | 0.0 | 2.0 | 0.00 | 0.34 | 0.28 | 87 | 1018.9 |
| 20260901142112 | 63 | 0.0 | 2.0 | 0.00 | 0.34 | 0.28 | 87 | 1019.0 | |
| 20260901141109 | 63 | 0 | 0.0 | 2.0 | 0.00 | 0.34 | 0.28 | 86 | 1019.0 |
| 20260901140107 | 64 | 30 | 0.0 | 2.0 | 0.00 | 0.34 | 0.28 | 82 | 1018.9 |
| 20260901135104 | 65 | 90 | 0.0 | 2.0 | 0.00 | 0.34 | 0.28 | 79 | 1018.8 |
| 20260901134102 | 64 | 0.0 | 2.0 | 0.00 | 0.34 | 0.28 | 82 | 1018.8 | |
| 20260901133059 | 64 | 0.0 | 2.0 | 0.00 | 0.34 | 0.28 | 84 | 1018.8 | |
| 20260901132057 | 63 | 45 | 0.0 | 2.0 | 0.00 | 0.34 | 0.28 | 84 | 1018.8 |
| 20260901131054 | 63 | 23 | 0.0 | 2.0 | 0.00 | 0.34 | 0.28 | 83 | 1018.7 |
| 20260901130052 | 64 | 0.0 | 2.0 | 0.00 | 0.34 | 0.28 | 84 | 1018.7 | |
| 20260901125049 | 63 | 248 | 0.0 | 2.0 | 0.00 | 0.34 | 0.28 | 84 | 1018.7 |
| 20260901124046 | 63 | 83 | 0.0 | 2.0 | 0.00 | 0.34 | 0.28 | 85 | 1018.6 |
| 20260901123044 | 63 | 23 | 0.0 | 2.0 | 0.00 | 0.34 | 0.28 | 86 | 1018.7 |
| 20260901122041 | 63 | 12 | 0.0 | 2.0 | 0.02 | 0.34 | 0.28 | 85 | 1018.6 |
| 20260901121039 | 63 | 135 | 0.0 | 2.0 | 0.04 | 0.34 | 0.28 | 87 | 1018.6 |
| 20260901120036 | 63 | 0 | 0.0 | 2.0 | 0.04 | 0.34 | 0.28 | 87 | 1018.6 |
| 20260901115034 | 64 | 51 | 0.0 | 2.0 | 0.11 | 0.34 | 0.28 | 88 | 1018.5 |
| 20260901114031 | 64 | 0.0 | 0.0 | 0.17 | 0.34 | 0.28 | 90 | 1018.3 | |
| 20260901113029 | 63 | 90 | 0.0 | 2.0 | 0.17 | 0.34 | 0.28 | 90 | 1018.2 |
| 20260901112026 | 63 | 0.0 | 0.0 | 0.14 | 0.32 | 0.26 | 89 | 1018.2 | |
| 20260901111023 | 63 | 0.0 | 0.0 | 0.13 | 0.31 | 0.25 | 89 | 1018.1 | |
| 20260901110021 | 64 | 293 | 0.0 | 2.0 | 0.13 | 0.31 | 0.25 | 87 | 1018.0 |
| 20260901105018 | 66 | 23 | 0.0 | 2.0 | 0.06 | 0.24 | 0.18 | 84 | 1018.0 |
| 20260901104016 | 70 | 7 | 0.0 | 2.0 | 0.00 | 0.18 | 0.12 | 77 | 1017.9 |
| 20260901103113 | 72 | 23 | 0.0 | 2.0 | 0.00 | 0.18 | 0.12 | 70 | 1017.5 |
| 20260901102111 | 70 | 111 | 1.0 | 4.0 | 0.00 | 0.18 | 0.12 | 72 | 1017.5 |
| 20260901101108 | 71 | 0.0 | 2.0 | 0.00 | 0.18 | 0.12 | 71 | 1017.5 | |
| 20260901100106 | 72 | 319 | 0.0 | 2.0 | 0.00 | 0.18 | 0.12 | 69 | 1017.4 |
| 20260901095103 | 71 | 248 | 0.0 | 4.0 | 0.00 | 0.18 | 0.12 | 72 | 1017.4 |
| 20260901094101 | 71 | 62 | 1.0 | 2.0 | 0.00 | 0.18 | 0.12 | 71 | 1017.3 |
| 20260901093058 | 69 | 0.0 | 2.0 | 0.00 | 0.18 | 0.12 | 76 | 1017.3 | |
| 20260901092056 | 69 | 23 | 0.0 | 4.0 | 0.00 | 0.18 | 0.12 | 74 | 1017.2 |
| 20260901091053 | 71 | 101 | 0.0 | 2.0 | 0.00 | 0.18 | 0.12 | 72 | 1017.1 |
| 20260901090050 | 71 | 79 | 0.0 | 4.0 | 0.00 | 0.18 | 0.12 | 71 | 1017.2 |
| 20260901085048 | 70 | 180 | 0.0 | 2.0 | 0.00 | 0.18 | 0.12 | 73 | 1017.3 |
| 20260901084045 | 71 | 98 | 0.0 | 2.0 | 0.00 | 0.18 | 0.12 | 73 | 1017.2 |
| 20260901083043 | 70 | 0.0 | 2.0 | 0.00 | 0.18 | 0.12 | 74 | 1017.1 | |
| 20260901082040 | 68 | 49 | 1.0 | 4.0 | 0.00 | 0.18 | 0.12 | 77 | 1017.0 |
| 20260901081037 | 69 | 60 | 0.0 | 2.0 | 0.00 | 0.18 | 0.12 | 76 | 1016.9 |
| 20260901080035 | 68 | 0.0 | 2.0 | 0.00 | 0.18 | 0.12 | 77 | 1016.8 | |
| 20260901075032 | 67 | 0.0 | 2.0 | 0.00 | 0.18 | 0.12 | 80 | 1017.0 | |
| 20260901074030 | 67 | 113 | 0.0 | 2.0 | 0.00 | 0.18 | 0.12 | 80 | 1016.9 |